Location: Font Vieille
(46.3113°N, 1.4583°E)
Time: 18:33:33
(UTC+00:00)

Daily predictions for brighter satellites

Satellite Brightness Start Highest point End
(mag) Time Altitude Azimuth Time Altitude Azimuth Time Altitude Azimuth
Ariane Rocket 3.1 18:51:09 10° SSE 18:56:08 59° ENE 19:01:06 10° N
STARLINK-1106 3.6 18:52:13 10° WNW 18:56:22 90° SW 19:00:31 10° ESE
Abrixas rocket 1.9 18:54:40 10° WSW 18:57:37 78° SSE 19:00:36 10° ENE
Cosmos 1544 Rocket 3.6 18:54:38 10° S 18:59:02 90° E 19:03:32 10° N
Aureole 2 Rocket 3.1 18:56:21 10° N 18:59:38 36° ENE 19:02:50 10° SE
STARLINK-1112 3.7 18:57:11 10° WNW 19:01:22 84° SSW 19:05:30 10° SE
ATLAS 2AS CENTAUR R/B 3.8 18:54:57 10° NNW 19:01:58 35° NNE 19:08:30 10° E
Cosmos 1943 4.1 18:58:25 10° SSE 19:03:03 27° ESE 19:07:43 10° NE
ISS -3.8 19:00:33 10° WNW 19:03:56 85° NNE 19:07:16 10° ESE
STARLINK-1128 3.7 19:02:12 10° WNW 19:06:21 79° SSW 19:10:29 10° SE
USA 234 4.1 19:02:50 10° ENE 19:08:12 27° SE 19:13:33 10° S
SL-08 RB Rocket 4.3 19:04:20 10° SE 19:08:29 37° ENE 19:12:42 10° N
SJ-11-01 4.3 19:04:05 10° SSE 19:08:47 85° ENE 19:13:32 10° NNW
HJ-1C 3.9 19:06:19 10° S 19:09:38 64° W 19:13:00 10° NNW
STARLINK-1113 3.8 19:07:10 10° WNW 19:11:18 73° SW 19:15:23 10° SE
SPOT 3 Rocket 4.2 19:07:56 10° SE 19:12:41 37° ENE 19:17:27 10° N
STARLINK-1119 3.8 19:12:10 10° WNW 19:16:17 68° SW 19:20:11 11° SE
Cosmos 1758 Rocket 4.2 19:13:58 10° N 19:18:00 36° ENE 19:21:59 10° SE
SeaSat 1 3.6 19:13:29 10° NNE 19:18:14 48° NW 19:22:57 10° SW
SJ-6B 3.1 19:14:57 10° SSE 19:18:55 52° ENE 19:22:58 10° N
STARLINK-1114 3.9 19:17:09 10° WNW 19:21:15 63° SW 19:24:57 12° SE
IRIDIUM 106 4.5 19:17:18 10° N 19:22:26 53° E 19:27:31 10° SSE
SL-16 R/B 3.1 19:18:34 10° SW 19:24:05 53° WNW 19:29:40 10° NNE
STARLINK-1130 (DARKSAT) 4.0 19:22:07 10° WNW 19:26:12 58° SW 19:29:44 13° SE
Cosmos 1818 4.2 19:23:11 10° S 19:27:56 32° ESE 19:32:44 10° NE
CZ-2C R/B 2.9 19:23:33 10° SSE 19:28:31 85° ENE 19:33:20 10° NNW
Cosmos 1606 Rocket 4.3 19:25:01 10° SSE 19:28:53 31° E 19:32:49 10° NNE
MOS 1 4.3 19:23:57 10° SSE 19:29:35 85° ENE 19:35:17 10° NNW
Cosmos 1758 3.7 19:25:33 10° SSW 19:29:38 71° W 19:33:44 10° N
STARLINK-1084 4.2 19:27:07 10° WNW 19:31:10 53° SW 19:34:31 14° SE
Cosmos 2228 3.7 19:31:07 10° SSE 19:34:56 32° E 19:38:49 10° NNE
SL-24 R/B 4.3 19:31:21 10° NNE 19:35:27 41° E 19:39:07 10° SSE
CZ-2C R/B 3.2 19:31:04 10° NNE 19:35:40 31° E 19:40:15 10° SSE
Cosmos 2084 Rocket 4.1 19:31:42 10° NW 19:36:05 55° SW 19:40:26 10° SSE
STARLINK-1098 4.3 19:32:08 10° WNW 19:36:09 49° SW 19:39:19 15° SSE
Cosmos 1656 Rocket 4.1 19:30:55 10° NNW 19:36:22 45° NE 19:40:14 18° ESE
Meteor 1-21 Rocket 4.1 19:32:03 10° N 19:37:39 85° E 19:43:11 10° SSE
Cosmos 1992 Rocket 4.0 19:32:50 10° NNW 19:38:04 88° ENE 19:43:17 10° SSE
STARLINK-1123 4.4 19:37:08 10° WNW 19:41:06 45° SW 19:44:06 16° SSE
ARGOS 3.3 19:36:09 10° SSE 19:41:33 81° WSW 19:46:58 10° NNW
Meteor 2-15 Rocket 4.5 19:35:32 10° S 19:41:36 84° W 19:47:43 10° N
MetOp-A 4.2 19:38:31 10° SSE 19:43:43 62° ENE 19:49:01 10° N
SL-4 R/B 2.7 19:40:58 10° SSW 19:43:44 24° SE 19:43:44 24° SE
BREEZE-M DEB (TANK) 3.8 19:37:08 10° WNW 19:44:10 68° N 19:45:57 24° E
COSMOS 2455 4.2 19:39:45 10° NNW 19:44:45 26° NE 19:48:18 16° E
Cosmos 1603 3.6 19:40:47 10° SSW 19:46:22 73° ESE 19:51:59 10° NNE
USA 186 2.8 19:43:24 10° S 19:46:43 49° W 19:49:56 10° NNW
Cosmos 1726 2.0 19:43:32 10° S 19:47:15 69° E 19:50:59 10° NNE
Cosmos 1340 Rocket 4.1 19:47:46 22° E 19:47:46 22° E 19:50:54 10° NE
H-2A R/B 2.7 19:45:16 10° S 19:50:26 57° W 19:55:30 10° NNW
Meteor 1-16 Rocket 4.1 19:48:00 10° S 19:53:18 67° E 19:58:46 10° NNE
Cosmos 1328 4.0 19:49:42 10° N 19:53:37 49° ENE 19:55:27 27° SE
Resurs 1-3 3.6 19:51:24 19° SSE 19:54:30 65° ENE 19:58:52 10° N
Cosmos 2184 Rocket 4.0 19:51:41 10° N 19:58:01 85° E 20:04:16 10° S
Meteor 2-10 4.1 19:57:28 10° S 20:02:53 87° W 20:08:32 10° N
Cosmos 1703 3.2 20:01:08 10° N 20:05:06 69° E 20:06:52 31° SSE
Cosmos 1461 4.3 20:02:28 10° NNW 20:06:26 30° NE 20:07:55 25° ENE
Cosmos 1953 3.3 20:03:18 10° SSW 20:07:08 49° WNW 20:11:02 10° N
Cosmos 2251 Rocket 4.2 20:04:16 10° SW 20:09:33 60° WNW 20:14:54 10° NNE
DMSP B5D2-2 4.0 20:05:01 10° NNE 20:10:15 74° ESE 20:15:28 10° S
Resurs 01 Rocket 1.5 20:12:29 32° SSE 20:14:27 73° ENE 20:18:52 10° N
Cosmos 1437 3.8 20:15:36 10° NNW 20:18:28 40° W 20:19:45 25° SSW
Cosmos 2058 Rocket 3.2 20:18:20 39° SSE 20:19:40 54° E 20:24:05 10° NNE
Cosmos 2154 Rocket 4.0 20:13:30 10° N 20:19:54 81° E 20:24:20 21° SSE
NOSS 3-4 (A) 3.9 20:14:14 10° NW 20:21:10 69° NE 20:24:57 32° ESE
NOSS 3-4 (C) 3.9 20:14:20 10° NW 20:21:16 68° NE 20:25:02 32° ESE
Cosmos 2369 Rocket 3.2 20:17:08 10° NW 20:22:30 43° WSW 20:27:19 12° S
Landsat 7 4.5 20:24:18 35° E 20:24:50 36° ENE 20:29:11 10° N
CZ-2C R/B 4.4 20:21:41 10° N 20:26:21 57° WNW 20:30:54 10° SSW
SL-8 R/B 4.2 20:22:00 10° WNW 20:26:37 49° SSW 20:27:50 39° SSE
Nadezhda 1 Rocket 4.0 20:20:22 10° S 20:26:46 89° ESE 20:33:11 10° N
Cosmos 1943 Rocket 3.8 20:23:21 10° NW 20:28:05 29° WSW 20:32:49 10° SSW
Cosmos 1908 3.3 20:27:25 25° SSW 20:29:33 75° W 20:33:27 10° N
NOSS 3-3 (A) 4.4 20:24:08 10° SW 20:30:00 62° NW 20:36:40 10° NE
NOSS 3-3 (C) 4.4 20:24:14 10° SW 20:30:05 63° NW 20:36:46 10° NE
Meteor 1-11 4.2 20:25:34 10° N 20:31:23 90° WNW 20:34:22 30° S
SL-8 Rocket 4.4 20:25:24 10° N 20:31:24 44° ENE 20:32:55 38° ESE
Abrixas rocket 2.9 20:30:26 10° W 20:32:54 47° NW 20:32:54 47° NW
SL-24 R/B - RUBIN 2 4.3 20:32:00 10° SSW 20:37:20 52° ESE 20:43:22 10° NE
Cosmos 1726 Rocket 3.9 20:34:23 12° SSW 20:38:19 63° W 20:42:45 10° N
SPOT 5 4.0 20:39:20 25° NE 20:39:20 25° NE 20:42:17 10° N
ISS -1.5 20:38:06 10° W 20:40:16 17° SW 20:40:16 17° SW
Cosmos 2366 rocket 4.4 20:35:57 10° N 20:41:44 41° ENE 20:42:32 39° E
Cosmos 1190 Rocket 3.9 20:40:52 32° S 20:43:17 69° ESE 20:48:35 10° NNE
Cosmos 1943 4.0 20:41:15 10° SW 20:46:46 52° WNW 20:52:20 10° NNE
Spot 2 Rocket 3.4 20:46:22 57° SE 20:47:25 79° ENE 20:52:33 10° NNW
Aureole 1 Rocket 4.2 20:42:16 10° SSW 20:50:10 87° WNW 20:56:26 10° NNE
USA 234 3.1 20:45:12 10° NE 20:51:48 86° SE 20:58:21 10° SW
Cosmos 1140 Rocket 3.3 20:51:23 61° SSE 20:52:08 71° ESE 20:57:18 10° NNE
ATLAS 2AS CENTAUR R/B 2.8 20:46:07 10° NW 20:53:45 80° SW 20:56:14 44° SSE
Iridium 4 Rocket 4.2 20:54:03 10° N 20:56:43 31° NE 20:56:43 31° NE
MetOp-B 4.2 20:57:15 49° S 20:58:43 75° WSW 21:04:07 10° NNW
BREEZE M DEB (TANK) 4.2 21:02:08 40° E 21:02:08 40° E 21:10:25 10° ENE
Cosmos 1697 Rocket 4.4 21:02:12 10° N 21:06:11 19° NE 21:06:58 19° NE
Terra 2.9 21:07:36 33° NE 21:07:36 33° NE 21:11:02 10° N
Cosmos 921 Rocket 3.4 21:06:07 10° NNW 21:09:38 59° NW 21:09:38 59° NW
Cosmos 676 Rocket 4.2 21:12:05 58° NE 21:12:05 58° NE 21:16:25 10° NNE
Cosmos 1818 4.5 21:06:05 10° WSW 21:11:20 48° NW 21:16:38 10° NNE
CZ-4C R/B 4.4 21:08:06 10° NNW 21:13:27 24° NNE 21:17:32 16° ENE
Cosmos 407 Rocket 4.0 21:10:03 10° SW 21:15:06 56° WNW 21:20:10 10° NNE
IGS 5A 4.1 21:16:12 54° NNW 21:16:12 54° NNW 21:19:31 10° NNW
CZ-2C R/B 3.9 21:11:17 10° N 21:16:00 37° WNW 21:20:43 10° SW
BREEZE-M DEB (TANK) 4.4 21:13:45 10° W 21:14:48 17° WNW 21:14:48 17° WNW
SPOT 1/Viking Rocket 3.4 21:17:02 87° SW 21:17:05 87° WSW 21:22:20 10° NNW
Cosmos 1340 Rocket 4.4 21:23:17 30° W 21:24:02 32° WNW 21:27:42 10° N
ERS-1 Rocket 3.1 21:27:58 71° NNW 21:27:58 71° NNW 21:32:27 10° NNW
COSMOS 2455 2.8 21:25:18 10° NW 21:31:21 78° WSW 21:31:27 78° SW
Cosmos 1980 Rocket 4.1 21:29:45 10° N 21:33:27 18° NE 21:33:52 17° NE
Cosmos 1954 Rocket 4.3 21:37:55 62° NNW 21:37:55 62° NNW 21:42:25 10° NNE
ATLAS CENTAUR R/B 4.0 21:41:10 10° N 21:42:19 13° NNE 21:42:19 13° NNE
Cosmos 1656 4.3 21:45:47 10° NNW 21:50:24 49° NNE 21:50:24 49° NNE
Resurs 01 Rocket 4.3 21:50:02 11° WSW 21:51:27 12° W 21:53:18 10° WNW
Cosmos 2218 Rocket 4.3 21:46:11 10° NNW 21:52:15 59° W 21:52:40 58° WSW
ATLAS 5 CENTAUR R/B 3.9 22:02:16 19° NNE 22:02:16 19° NNE 22:03:46 10° NNE
USA 234 4.2 22:28:21 10° NE 22:34:29 44° NNW 22:40:37 10° W
Terra 4.0 22:46:29 21° NW 22:46:29 21° NW 22:48:34 10° NW
Cosmos 1697 Rocket 3.9 22:45:18 10° NNW 22:48:42 38° NNW 22:48:42 38° NNW
Mayak 1.6 22:49:06 10° N 22:49:57 15° N 22:49:57 15° N
SL-16 R/B 4.1 22:56:52 10° N 23:00:33 23° NNE 23:00:33 23° NNE
CZ-4C R/B 3.2 22:56:22 10° NW 23:02:42 59° NNE 23:02:42 59° NNE
Cosmos 2322 Rocket 4.1 23:08:13 10° N 23:11:47 23° NNE 23:11:47 23° NNE
Cosmos 1980 Rocket 3.7 23:12:43 10° NNW 23:15:38 32° NNW 23:15:38 32° NNW
Cosmos 2344 4.3 23:28:03 10° NW 23:37:43 89° ENE 23:38:51 77° SE
Cosmos 2082 Rocket 3.9 23:44:34 28° NNE 23:44:34 28° NNE 23:47:13 10° NNE
